Tracking 19854 objects as of 23-Sep-2019
HD Live streaming from Space Station
objects crossing your sky now

DMSP 5D-2 F15 (USA 147)

Track DMSP 5D-2 F15 (USA 147) now!
10-day predictions
DMSP 5D-2 F15 (USA 147) is classified as:


NORAD ID: 25991
Int'l Code: 1999-067A
Perigee: 836.9 km
Apogee: 851.7 km
Inclination: 98.9 °
Period: 101.7 minutes
Semi major axis: 7215 km
RCS: Unknown
Launch date: December 12, 1999
Source: United States (US)
Launch site: AIR FORCE WESTERN TEST RANGE (AFWTR)

Near-polar orbits; investigate Earth's environment.
aabbcc
Your satellite tracking list
Your tracking list is empty




NASA's NSSDC Master Catalog

Two Line Element Set (TLE):
1 25991U 99067A   19265.61240880 -.00000103  00000-0 -29010-4 0  9991
2 25991  98.9289 230.4933 0010306 140.3768 338.0820 14.16515338 22382
Source of the keplerian elements: McCants